{"data":{"norad_id":59566,"intl_designator":"2024-076C","name":"STARLINK-31332","alt_names":[],"object_type":"PAYLOAD","status":"ACTIVE","operator":null,"country":"US","launch_date":"2024-04-23","launch_site_code":"AFETR","launch_vehicle":null,"mission":null,"orbit_class":"UNKNOWN","rcs_meters":null,"size_class":null,"mass_kg":null,"dimensions":null,"purposes":["comms"],"wikipedia_slug":null,"has_3d_model":false,"image_url":null,"decayed_at":null,"tle_current":{"epoch":"2026-05-25T02:46:38.250336Z","epoch_age_seconds":68264,"freshness":"FRESH","line1":"1 59566U 24076C   26145.11572049  .00001094  00000+0  49292-4 0  9990","line2":"2 59566  43.0009 297.1611 0001242 281.9170  78.1543 15.27574639118190","mean_motion":15.27574639,"eccentricity":0.0001242,"inclination_deg":43.0009,"raan_deg":297.1611,"arg_perigee_deg":281.917,"mean_anomaly_deg":78.1543,"bstar":4.9292e-5,"rev_number":11819,"period_min":94.267079541375,"perigee_km":482.21298754232,"apogee_km":483.9173101561,"semimajor_km":6861.2021488492,"source":"CELESTRAK","updated_at":"2026-05-25T13:38:18.984637Z"}}}